Regional Weather Roundup
Issued by NWS Charleston, SC

Current Version | Previous Version | Graphics & Text | Print | Product List | Glossary On
Versions: 1 2 3 4 5 6 7 8 9 10 11 12 13 14 15 16 17 18 19 20 21 22 23 24 25 26 27 28 29 30 31 32 33 34 35 36 37 38 39 40 41 42 43 44 45 46 47 48 49 50
000 ASUS42 KCHS 220427 RWRCHS REGIONAL WEATHER ROUNDUP NATIONAL WEATHER SERVICE CHARLESTON SC 1100 PM EST SAT JAN 21 2017 NOTE: "FAIR" INDICATES FEW OR NO CLOUDS BELOW 12,000 FEET WITH NO SIGNIFICANT WEATHER AND/OR OBSTRUCTIONS TO VISIBILITY. NOT ALL STATIONS ARE QUALITY CONTROLLED. USE DATA WITH CAUTION... ESPECIALLY DEWPOINT OBSERVATIONS. SCZ027-030-031-034>040-042>050-220500- ...SOUTHEAST SOUTH CAROLINA... CITY SKY/WX TMP DP RH WIND PRES REMARKS N CHARLESTON MOCLDY 57 56 96 S6 29.72S WATERFRONT PRK N/A 61 60 97 VRB3 29.72R MOUNT PLEASANT FAIR 61 59 94 SW6 29.74R JOHNS ISLAND FAIR 61 59 94 SW8 29.74S PINOPOLIS N/A 61 59 94 VRB2 29.62F MONCKS CORNER CLOUDY 57 57 100 SW8 29.73R SUMMERVILLE CLOUDY N/A N/A N/A S5 29.74R BEAUFORT MCAS PTCLDY 61 59 93 SW7 29.72F BEAUFORT ARPT FAIR 61 59 94 SW3 29.71F HILTON HEAD IS CLOUDY 61 61 100 S8 29.72F WALTERBORO MOCLDY 57 57 100 S5 29.73R ALLENDALE CLOUDY 59 59 100 CALM 29.72S ...SOUTHERN MIDLANDS AND PEE DEE... CITY SKY/WX TMP DP RH WIND PRES REMARKS GEORGETOWN NOT AVBL KINGSTREE FAIR 59 55 88 SW3 29.70S ORANGEBURG CLOUDY 60 58 92 SW12 29.71S BARNWELL CLOUDY 61 61 100 SW5 29.72F AIKEN CLOUDY 59 55 88 SW6 29.72F MANNING CLOUDY 59 55 88 SW7 29.70S COLUMBIA CLOUDY 63 58 83 SW9 29.68S SUMTER CLOUDY 61 58 88 SW9 29.66F FLORENCE CLOUDY 62 59 90 SW8 29.67F MYRTLE BEACH CLOUDY 61 57 88 SW6 29.72S N MYRTLE BEACH CLOUDY 60 58 92 SW9 29.70F $$ GAZ063-065-086>088-099>101-113>116-118-119-134>141-150-220500- ...SOUTHEAST GEORGIA... CITY SKY/WX TMP DP RH WIND PRES REMARKS SAVANNAH ARPT MOCLDY 60 58 92 CALM 29.72F HUNTER AAF CLOUDY 62 62 100 S6 29.69F FORT STEWART CLOUDY 62 59 90 S3 29.70F STATESBORO PTCLDY 60 32 35 CALM 29.72F SYLVANIA MOCLDY N/A N/A N/A CALM 29.72F CLAXTON FOG N/A N/A N/A CALM 29.72S VSB 1 ...CSRA...CENTRAL AND FAR SOUTHEAST GEORGIA... CITY SKY/WX TMP DP RH WIND PRES REMARKS THOMSON CLOUDY 63 61 93 W3 29.74S AUGUSTA-BUSH CLOUDY 63 58 83 S6 29.70S AUGUSTA-DANIEL CLOUDY 62 56 80 SW6 29.70S SWAINSBORO CLOUDY 61 59 94 MISG 29.72F VIDALIA PTCLDY 59 59 100 E3 29.69F EASTMAN MOCLDY 62 62 100 CALM 29.72F HAZLEHURST FAIR 63 63 100 S3 29.68F ALMA CLOUDY 62 62 100 SE9 29.72S WAYCROSS RAIN 66 66 100 S10 29.78 JESUP FAIR 64 59 82 SW3 29.74R BAXLEY MOCLDY 63 63 100 S7 29.72R BRUNSWICK LGT RAIN 66 63 88 SW12 29.75S SAINT SIMONS CLOUDY 64 61 90 W6 29.74F $$ SCZ027-028-034-036>038-045-046-048>050-GAZ119-141-220500- ...LAKE AND SUPPLEMENTAL COASTAL OBSERVATIONS... STATION/POSITION TIME TEMP WIND PRES WAVE SWELL AIR SEA DIR/SP/G HT/PER HT/PER/DIR (UTC) (F) (DEG/KT/KT) (MB) (FT/S) (FT/S/D) WINYAH BAY 0330 59 260/ 3 1006.0S LAKE MURRAY 0350 62 230/ 9/ 12 1004.7R ACE BASIN NERRS 0345 60 CALM 1007.0R FORT PULASKI 0400 62 59 220/ 7/ 12 1006.2 SAPELO ISLAND 0400 63 240/ 6 1007.0 $$ ANZ835-935-AMZ111-154-330-350-352-354-370-450-454-472-220500- ...C-MAN AND BUOY OBSERVATIONS... STATION/POSITION TIME TEMP WIND PRES WAVE SWELL AIR SEA DIR/SP/G HT/PER HT/PER/DIR (UTC) (F) (DEG/KT/KT) (MB) (FT/S) (FT/S/D) BUOY 41004 0350 68 69 180/ 12/ 16 1006.3R 4/ 5 2/190/ 6 BUOY 41008 0350 65 62 240/ 8/ 10 1006.4F 3/ 5 2/140/ 5 FOLLY BEACH CMAN 0400 60 230/ 9/ 12 1007.3R CAPERS NEARSHORE 0408 60 56 220/ 10/ 14 1006.2R FRIPP NEARSHORE 0408 60 59 210/ 8/ 12 1005.7F STATION/POSITION TIME TEMP WIND PRES WAVE SWELL AIR SEA DIR/SP/G HT/PER HT/PER/DIR (UTC) (F) (DEG/KT/KT) (MB) (FT/S) (FT/S/D) 5E ST. MARYS GA 0400 63 N/A 2/11 2/100/11 FRYING PAN BUOY 0410 70 70 190/ 19/ 23 1005.0 BUOY 41025 0350 68 73 140/ 6/ 10 1006.8F 6/ 5 5/150/ 5 CAPE LOOKOUT NC 0400 65 180/ 12/ 14 1005.1F BUOY 41002 0350 72 71 200/ 16/ 17 1010.8S 5/ 6 3/ 30/10 BUOY 41010 NOT AVBL ST AUGUSTINE FL 0400 65 64 120/ 6/ 7 1010.1F $$

USA.gov is the U.S. government's official web portal to all federal, state and local government web resources and services.